Вернуться в каталог

RIGIDSPHERE 2

LCS 4

АктивенВоенныеPO
NORAD 5398·PAYLOAD·🇺🇸 United States

Запущен Aug 7, 1971 с Vandenberg Space Force Base

Loading…

Ближайшие Пролёты (ближайшие 24 часа)

TLE

СвежийSource: Space-Track

Эпоха: Sep 14, 2026, 14:44 UTC

1 05398U 71067E   26257.61455993  .00000418  00000-0  13025-3 0  9997
2 05398  87.6213 313.9896 0057595 297.0262  62.5065 14.37955941886736

Отслеживайте RIGIDSPHERE 2 в реальном времени с AllMySat

Download on the App Store